This is the latest recevied weather packets stored in our database for station/object NO4D. If no packets are shown the sender has not sent any weather packets the latest 10 day(s).
| Time | Temp. | Humidity | Pressure | Rain* | Wind** | Luminosity | Snow |
|---|---|---|---|---|---|---|---|
| 1777588458 | 22.22° C | 44% | 1010.1 hPa | 0 mm | - | 154 W/m² | - |
| 1777588153 | 22.22° C | 46% | 1009.9 hPa | 0 mm | - | 124 W/m² | - |
| 1777587850 | 22.22° C | 47% | 1010 hPa | 0 mm | - | 179 W/m² | - |
| 1777587550 | 22.22° C | 47% | 1010 hPa | 0 mm | - | 133 W/m² | - |
| 1777587245 | 22.22° C | 46% | 1010.1 hPa | 0 mm | - | 128 W/m² | - |
| 1777586941 | 22.78° C | 49% | 1009.9 hPa | 0 mm | - | 76 W/m² | - |
| 1777586636 | 22.78° C | 54% | 1009.9 hPa | 0 mm | - | 75 W/m² | - |
| 1777586332 | 22.78° C | 63% | 1009.8 hPa | 0 mm | - | 88 W/m² | - |
| 1777586031 | 23.33° C | 62% | 1009.4 hPa | 0 mm | - | 126 W/m² | - |
| 1777585730 | 23.33° C | 60% | 1009.3 hPa | 0 mm | - | 142 W/m² | - |
| 1777585430 | 23.33° C | 63% | 1009.5 hPa | 0 mm | - | 168 W/m² | - |
| 1777585126 | 23.89° C | 60% | 1009.3 hPa | 0 mm | - | 150 W/m² | - |
| 1777584822 | 24.44° C | 55% | 1009.4 hPa | 0 mm | - | 169 W/m² | - |
| 1777584520 | 23.89° C | 53% | 1009.4 hPa | 0 mm | - | 214 W/m² | - |
| 1777584217 | 23.89° C | 53% | 1009.4 hPa | 0 mm | - | 320 W/m² | - |
| 1777583916 | 23.89° C | 53% | 1009.2 hPa | 0 mm | - | 344 W/m² | - |
| 1777583612 | 24.44° C | 53% | 1009.2 hPa | 0 mm | - | 364 W/m² | - |
| 1777583311 | 23.89° C | 53% | 1009.2 hPa | 0 mm | - | 329 W/m² | - |
| 1777583005 | 23.33° C | 56% | 1009.5 hPa | 0 mm | - | 373 W/m² | - |
| 1777582703 | 23.33° C | 54% | 1009.4 hPa | 0 mm | - | 207 W/m² | - |
| 1777582403 | 23.33° C | 53% | 1009.6 hPa | 0 mm | - | 195 W/m² | - |
| 1777582103 | 23.89° C | 57% | 1009.8 hPa | 0 mm | - | 194 W/m² | - |
| 1777581803 | 23.89° C | 58% | 1009.5 hPa | 0 mm | - | 323 W/m² | - |
| 1777581502 | 24.44° C | 55% | 1009.5 hPa | 0 mm | - | 367 W/m² | - |
| 1777581198 | 24.44° C | 55% | 1009.1 hPa | 0 mm | - | 545 W/m² | - |
* Rain latest hour (hover to see other rain measurements)
** Current wind speed in m/s (hover to see current wind gust speed)